DW8947 Weather Reports


time (UTC)temp
C
wind
direction
speed
KPH
gust
KPH
rain 1hr
cm
rain 24hr
cm
rain mn
cm
humidity
%
barometer
mb
20260903202704 18 266 0.0 3.2 0.00 0.38 0.08 74 1007.8
20260903195704 17 222 0.0 3.2 0.00 0.38 0.08 75 1008.0
20260903195205 17 150 0.0 3.2 0.00 0.38 0.08 74 1008.0
20260903193204 17 203 0.0 3.2 0.00 0.43 0.08 76 1007.8
20260903192704 17 179 0.0 3.2 0.00 0.43 0.08 79 1007.8
20260903191704 16 308 1.6 3.2 0.00 0.43 0.08 80 1007.7
20260903191204 16 163 0.0 3.2 0.00 0.43 0.08 81 1007.8
20260903190704 16 173 0.0 3.2 0.00 0.43 0.08 83 1007.8
20260903190203 15 181 0.0 1.6 0.00 0.43 0.08 83 1007.8
20260903185704 15 181 0.0 3.2 0.00 0.43 0.08 82 1007.9
20260903184704 15 181 0.0 3.2 0.00 0.43 0.08 82 1008.0
20260903183704 15 337 0.0 3.2 0.00 0.43 0.08 82 1007.9
20260903182704 15 172 0.0 3.2 0.00 0.43 0.08 83 1007.7
20260903181704 15 308 0.0 1.6 0.00 0.43 0.08 83 1007.7
20260903180705 15 278 1.6 3.2 0.00 0.43 0.08 82 1007.6
20260903175704 15 223 0.0 3.2 0.00 0.43 0.08 84 1007.6
20260903175204 15 138 1.6 3.2 0.00 0.43 0.08 84 1007.6
20260903172204 14 126 1.6 3.2 0.00 0.43 0.08 89 1007.4
20260903171204 14 317 0.0 3.2 0.00 0.43 0.08 89 1007.4
20260903170704 14 345 0.0 3.2 0.00 0.43 0.08 89 1007.5
20260903165703 13 93 0.0 3.2 0.00 0.43 0.08 90 1007.4
20260903164704 13 136 0.0 3.2 0.00 0.43 0.08 90 1007.4
20260903164203 13 136 0.0 3.2 0.00 0.43 0.08 90 1007.4
20260903162704 13 127 0.0 3.2 0.00 0.43 0.08 93 1007.5
20260903160204 13 151 0.0 3.2 0.00 0.43 0.08 93 1007.4
20260903155204 13 151 0.0 3.2 0.00 0.43 0.08 94 1007.3
20260903154704 13 151 0.0 3.2 0.00 0.43 0.08 94 1007.3
20260903153704 13 151 0.0 3.2 0.00 0.43 0.08 94 1007.2
20260903152704 12 151 0.0 3.2 0.00 0.43 0.08 94 1007.2
20260903151704 12 151 0.0 3.2 0.03 0.43 0.08 94 1007.2
20260903151204 12 151 1.6 3.2 0.03 0.43 0.08 94 1007.2
20260903150704 12 151 0.0 3.2 0.03 0.43 0.08 94 1007.2
20260903144704 12 151 0.0 3.2 0.03 0.43 0.08 94 1007.1
20260903142704 12 151 0.0 3.2 0.03 0.43 0.08 94 1007.0
20260903141204 12 144 0.0 1.6 0.00 0.41 0.05 95 1006.8
20260903140704 12 144 0.0 3.2 0.00 0.41 0.05 95 1006.8
20260903140204 12 144 0.0 3.2 0.00 0.41 0.05 95 1006.8
20260903134704 12 144 0.0 3.2 0.00 0.41 0.05 95 1006.7
20260903134204 12 144 0.0 3.2 0.00 0.41 0.05 95 1006.7
20260903131704 12 144 0.0 3.2 0.00 0.41 0.05 95 1006.5
20260903125204 12 144 0.0 3.2 0.00 0.41 0.05 95 1006.4
20260903124704 12 144 0.0 3.2 0.00 0.41 0.05 95 1006.3
20260903124204 12 144 0.0 3.2 0.00 0.41 0.05 95 1006.4
20260903123704 12 144 0.0 3.2 0.00 0.41 0.05 95 1006.3
20260903123204 12 144 0.0 3.2 0.00 0.41 0.05 95 1006.3
20260903122704 12 144 0.0 3.2 0.00 0.41 0.05 95 1006.3
20260903122203 12 144 0.0 3.2 0.00 0.41 0.05 95 1006.3
20260903121704 12 144 0.0 3.2 0.03 0.41 0.05 95 1006.2
20260903120704 12 144 0.0 3.2 0.03 0.41 0.05 95 1006.2
20260903115704 12 144 0.0 3.2 0.05 0.41 0.05 94 1006.1
20260903113204 12 144 0.0 3.2 0.05 0.41 0.05 94 1006.1
20260903112704 12 105 0.0 1.6 0.05 0.41 0.05 93 1006.1
20260903105204 13 112 0.0 3.2 0.00 0.36 0.00 92 1006.1
20260903103204 13 125 0.0 3.2 0.00 0.36 0.00 92 1006.0
20260903102204 13 128 0.0 3.2 0.00 0.36 0.00 93 1006.0
20260903101704 13 128 0.0 3.2 0.00 0.36 0.00 92 1005.9
20260903101204 13 128 0.0 3.2 0.00 0.36 0.00 93 1005.9
20260903100704 13 128 0.0 3.2 0.00 0.36 0.00 92 1005.9
20260903100204 13 128 0.0 3.2 0.00 0.36 0.00 92 1005.9
20260903095704 13 100 0.0 3.2 0.00 0.36 0.00 93 1005.9
20260903095204 13 100 0.0 3.2 0.00 0.36 0.00 93 1005.8
20260903093203 13 157 0.0 3.2 0.00 0.36 0.00 93 1005.8
20260903091204 13 157 0.0 1.6 0.00 0.36 0.00 93 1005.7
20260903090704 13 157 0.0 3.2 0.00 0.36 0.00 93 1005.7
20260903085704 13 83 0.0 3.2 0.00 0.36 0.00 93 1005.6
20260903084704 12 138 0.0 3.2 0.00 0.36 0.00 93 1005.6
20260903081704 12 152 0.0 3.2 0.00 0.36 0.00 93 1005.4
20260903080203 12 152 0.0 3.2 0.00 0.36 0.00 93 1005.4
20260903075704 13 152 0.0 3.2 0.00 0.36 0.00 93 1005.4
20260903074704 13 152 0.0 3.2 0.00 0.36 0.00 93 1005.3
20260903074204 13 152 0.0 3.2 0.00 0.36 0.00 93 1005.4
20260903073203 13 142 0.0 3.2 0.00 0.36 0.00 92 1005.4
20260903072704 13 142 0.0 3.2 0.00 0.36 0.00 92 1005.3
20260903072204 13 142 0.0 3.2 0.00 0.36 0.00 92 1005.3
20260903070704 13 181 1.6 3.2 0.00 0.36 0.00 92 1005.2
20260903065704 13 164 0.0 3.2 0.00 0.36 0.36 93 1005.1
20260903063704 13 150 1.6 1.6 0.00 0.36 0.36 93 1004.9
20260903062704 12 222 0.0 3.2 0.00 0.36 0.36 94 1004.9
20260903062203 12 48 1.6 3.2 0.00 0.36 0.36 94 1004.9
20260903061203 12 150 0.0 3.2 0.00 0.36 0.36 94 1004.9
20260903060704 12 355 0.0 3.2 0.00 0.36 0.36 93 1005.0
20260903055704 12 338 0.0 3.2 0.00 0.36 0.36 93 1005.1
20260903055203 12 338 0.0 3.2 0.00 0.36 0.36 93 1005.1
20260903054204 13 338 0.0 3.2 0.00 0.36 0.36 93 1005.1
20260903051204 13 234 0.0 3.2 0.00 0.36 0.36 92 1005.0
20260903050704 13 8 0.0 3.2 0.00 0.36 0.36 92 1004.9
20260903045203 13 81 0.0 1.6 0.00 0.36 0.36 92 1004.7
20260903044204 13 58 1.6 3.2 0.00 0.36 0.36 92 1004.6
20260903042703 13 138 1.6 3.2 0.00 0.36 0.36 92 1004.6
20260903041704 13 143 1.6 3.2 0.00 0.36 0.36 93 1004.5
20260903041203 13 98 1.6 3.2 0.00 0.36 0.36 93 1004.6
20260903040703 13 163 0.0 3.2 0.00 0.36 0.36 93 1004.5
20260903040203 13 158 0.0 3.2 0.00 0.36 0.36 93 1004.5
20260903035704 13 156 1.6 4.8 0.00 0.36 0.36 93 1004.4
20260903032704 13 81 0.0 3.2 0.00 0.36 0.36 94 1004.2
20260903032204 13 169 1.6 3.2 0.00 0.36 0.36 94 1004.1
20260903030703 13 158 1.6 3.2 0.00 0.36 0.36 94 1003.9
20260903024704 13 178 0.0 3.2 0.00 0.36 0.36 93 1003.5
20260903023703 13 99 0.0 3.2 0.00 0.36 0.36 93 1003.4
20260903022704 13 146 0.0 3.2 0.00 0.36 0.36 93 1003.1
20260903021204 14 178 0.0 3.2 0.00 0.36 0.36 92 1003.1
20260903020704 14 100 0.0 3.2 0.00 0.36 0.36 92 1003.0
20260903014704 14 210 0.0 3.2 0.00 0.36 0.36 92 1002.6
20260903012704 15 159 0.0 3.2 0.00 0.36 0.36 93 1002.4
20260903012204 15 44 1.6 3.2 0.00 0.36 0.36 93 1002.2
20260903011204 15 236 0.0 4.8 0.00 0.36 0.36 93 1002.1
20260903003204 14 159 1.6 4.8 0.00 0.36 0.36 94 1001.7
20260903002204 14 154 1.6 3.2 0.00 0.36 0.36 94 1001.6
20260903001704 14 160 1.6 3.2 0.00 0.36 0.36 94 1001.6
20260902234704 14 160 1.6 3.2 0.15 0.36 0.36 94 1001.7
20260902234205 14 154 1.6 3.2 0.18 0.36 0.36 94 1001.8
20260902233705 14 163 1.6 3.2 0.18 0.36 0.36 94 1001.8
20260902233205 14 155 1.6 4.8 0.20 0.36 0.36 94 1001.9
20260902232705 14 157 1.6 3.2 0.20 0.36 0.36 93 1002.1
20260902231205 14 168 0.0 3.2 0.20 0.33 0.33 93 1002.3
20260902230205 14 173 0.0 3.2 0.18 0.28 0.28 92 1002.5
20260902224705 15 195 0.0 3.2 0.13 0.20 0.20 92 1002.4
20260902222205 15 306 0.0 3.2 0.08 0.13 0.13 90 1002.5
20260902221705 15 306 0.0 3.2 0.08 0.13 0.13 89 1002.5
20260902220205 15 306 0.0 1.6 0.05 0.10 0.10 88 1002.6
20260902215705 16 239 0.0 3.2 0.05 0.10 0.10 88 1002.5
20260902215205 16 241 0.0 3.2 0.05 0.10 0.10 88 1002.6
20260902214705 16 241 0.0 3.2 0.03 0.08 0.08 87 1002.6
20260902213705 16 167 0.0 3.2 0.03 0.08 0.08 85 1002.7
20260902212205 17 179 1.6 3.2 0.00 0.05 0.05 83 1002.7
20260902211705 17 153 1.6 4.8 0.00 0.05 0.05 81 1002.7
20260902211205 17 218 0.0 3.2 0.00 0.05 0.05 81 1002.6
20260902210705 17 300 0.0 3.2 0.00 0.05 0.05 82 1002.5
20260902205205 18 163 1.6 3.2 0.00 0.05 0.05 79 1002.4
20260902204705 17 262 1.6 3.2 0.03 0.05 0.05 80 1002.4
20260902204205 17 240 0.0 3.2 0.03 0.05 0.05 81 1002.5